Regional Weather Roundup
Issued by NWS

Home | Current Version | Previous Version | Graphics & Text | Print | Product List | Glossary On
Versions: 1 2 3 4 5 6 7 8 9 10 11 12 13 14 15 16 17 18 19 20 21 22 23 24 25 26 27 28 29 30 31 32 33 34 35 36 37 38 39 40 41 42 43 44 45 46 47 48 49 50
069
ASUS43 KFSD 031902
RWRSD

WEATHER ROUNDUP FOR SOUTH DAKOTA
NATIONAL WEATHER SERVICE SIOUX FALLS SD
100 PM CST SAT DEC 03 2016

NOTE: "FAIR" INDICATES FEW OR NO CLOUDS BELOW 12,000 FEET WITH NO
SIGNIFICANT WEATHER AND/OR OBSTRUCTIONS TO VISIBILITY.


SDZ001>005-009-010-012>017-032000-
NORTHWEST AND NORTH CENTRAL SOUTH DAKOTA

CITY           SKY/WX    TMP DP  RH WIND       PRES   REMARKS
BUFFALO          N/A     35  27  72 W12       29.78F WCI  27
FAITH            N/A     23  23 100 S7        29.87F WCI  15
MOBRIDGE       SUNNY     36  29  75 S8        29.89F
$$

SDZ012>016-024>037-041>051-057-063-072>074-032000-
SOUTHWEST AND SOUTH CENTRAL SOUTH DAKOTA

CITY           SKY/WX    TMP DP  RH WIND       PRES   REMARKS
RAPID CTY ARPT SUNNY     41  18  39 N15       29.87F
PIERRE         SUNNY     36  30  79 S10       29.92F
CUSTER         CLOUDY    32  14  47 NW12G21   29.84R WCI  23
ELLSWORTH AFB  MOSUNNY   37  19  48 N9        29.86F
PHILIP         SUNNY     38  23  55 W9        29.90F
PINE RIDGE     SUNNY     37  18  46 W17G25    29.89F
SPEARFISH      FAIR      36  21  55 W13G20    29.86F
WINNER         FAIR      45  29  53 S15G23    29.96
$$

SDZ004>011-016>023-039-040-032000-
NORTHEAST SOUTH DAKOTA

CITY           SKY/WX    TMP DP  RH WIND       PRES   REMARKS
ABERDEEN       CLOUDY    34  29  82 S14       30.02F WCI  25
WATERTOWN      PTSUNNY   32  28  85 S15       30.06F WCI  22
SISSETON         N/A     31  26  82 S18       30.09F WCI  19
$$

SDZ017-020-022-023-036>040-048>070-032000-
SOUTHEAST SOUTH DAKOTA

CITY           SKY/WX    TMP DP  RH WIND       PRES   REMARKS
SIOUX FALLS    NOT AVBL
HURON          MIX PCPN  32  31  96 S15       30.05F FOG     WCI  22
CHAMBERLAIN    CLOUDY    38  35  89 S13       29.99F
MITCHELL       LGT RAIN  33  32  96 SE12      30.09F FOG     WCI  24
YANKTON        CLOUDY    36  28  75 S15       30.15F
$$

ABBREVIATIONS USED IN REMARKS
   TC - TEMPERATURE IN CELSIUS
  WCI - WIND CHILL INDEX
   HX - HEAT INDEX
  VSB - VISIBILITY





USA.gov is the U.S. government's official web portal to all federal, state and local government web resources and services.